When you browse on this site, cookies collect data to enhance your experience and personalize the content and advertising you see.
Visit our Privacy Policy to learn more. By continuing to use the site, you agree to this use of cookies and data.
  • In Schweiz
  • Länderverzeichnis
  • Für 7 Tage
  • Wassertemperatur
  • Wetterkarte
  • Widgets
  • user-avatar
    Anmelden

    Stündliche Wetter Yangjinzhuang

    Heute, 3 Juni, Mittwoch

    Zeit Temperatur Niederschläge Wind Luftdruck Luftfeuchtigkeit
    00:00 +25°C° 0 mm 2 m/S 748 mmHg 38%
    01:00 +24°C° 0 mm 2 m/S 748 mmHg 40%
    02:00 +23°C° 0 mm 2 m/S 747 mmHg 42%
    03:00 +23°C° 0 mm 2 m/S 748 mmHg 43%
    04:00 +21°C° 0 mm 2 m/S 748 mmHg 45%
    05:00 +21°C° 0 mm 2 m/S 748 mmHg 47%
    06:00 +24°C° 0 mm 2 m/S 748 mmHg 39%
    07:00 +27°C° 0 mm 3 m/S 748 mmHg 32%
    08:00 +29°C° 0 mm 3 m/S 748 mmHg 25%
    09:00 +32°C° 0 mm 5 m/S 748 mmHg 20%
    10:00 +34°C° 0 mm 6 m/S 748 mmHg 16%
    11:00 +36°C° 0 mm 7 m/S 748 mmHg 11%
    12:00 +38°C° 0 mm 7 m/S 748 mmHg 11%
    13:00 +39°C° 0 mm 8 m/S 747 mmHg 11%
    14:00 +40°C° 0 mm 8 m/S 747 mmHg 11%
    15:00 +40°C° 0 mm 8 m/S 747 mmHg 11%
    16:00 +40°C° 0 mm 9 m/S 747 mmHg 10%
    17:00 +40°C° 0 mm 9 m/S 746 mmHg 10%
    18:00 +36°C° 0 mm 7 m/S 747 mmHg 11%
    19:00 +33°C° 0 mm 6 m/S 747 mmHg 11%
    20:00 +29°C° 0 mm 4 m/S 747 mmHg 12%
    21:00 +28°C° 0 mm 3 m/S 748 mmHg 14%
    22:00 +26°C° 0 mm 2 m/S 749 mmHg 16%
    23:00 +25°C° 0 mm 1 m/S 750 mmHg 18%

    Morgen, 4 Juni, Donnerstag

    Zeit Temperatur Niederschläge Wind Luftdruck Luftfeuchtigkeit
    00:00 +24°C° 0 mm 2 m/S 750 mmHg 20%
    01:00 +24°C° 0 mm 2 m/S 751 mmHg 22%
    02:00 +22°C° 0 mm 3 m/S 751 mmHg 25%
    03:00 +21°C° 0 mm 2 m/S 751 mmHg 28%
    04:00 +20°C° 0 mm 2 m/S 752 mmHg 31%
    05:00 +20°C° 0 mm 1 m/S 752 mmHg 34%
    06:00 +21°C° 0 mm 2 m/S 752 mmHg 32%
    07:00 +24°C° 0 mm 2 m/S 753 mmHg 29%
    08:00 +26°C° 0 mm 3 m/S 753 mmHg 27%
    09:00 +28°C° 0 mm 2 m/S 753 mmHg 24%
    10:00 +30°C° 0 mm 2 m/S 753 mmHg 22%
    11:00 +31°C° 0 mm 2 m/S 752 mmHg 19%
    12:00 +32°C° 0 mm 2 m/S 752 mmHg 18%
    13:00 +34°C° 0 mm 2 m/S 752 mmHg 17%
    14:00 +35°C° 0 mm 3 m/S 752 mmHg 16%
    15:00 +34°C° 0 mm 4 m/S 751 mmHg 19%
    16:00 +33°C° 0 mm 5 m/S 751 mmHg 22%
    17:00 +32°C° 0 mm 6 m/S 751 mmHg 25%
    18:00 +28°C° 0 mm 5 m/S 751 mmHg 31%
    19:00 +26°C° 0 mm 3 m/S 752 mmHg 38%
    20:00 +23°C° 0 mm 1 m/S 752 mmHg 44%
    21:00 +23°C° 0 mm 1 m/S 753 mmHg 44%
    22:00 +23°C° 0 mm 1 m/S 754 mmHg 44%
    23:00 +23°C° 0 mm 1 m/S 754 mmHg 44%

    übermorgen, 5 Juni, Freitag

    Zeit Temperatur Niederschläge Wind Luftdruck Luftfeuchtigkeit
    00:00 +22°C° 0 mm 1 m/S 754 mmHg 45%
    01:00 +22°C° 0 mm 1 m/S 755 mmHg 45%
    02:00 +21°C° 0 mm 1 m/S 755 mmHg 46%
    03:00 +21°C° 0 mm 1 m/S 755 mmHg 47%
    04:00 +21°C° 0 mm 1 m/S 755 mmHg 48%
    05:00 +20°C° 0 mm 1 m/S 756 mmHg 49%
    06:00 +23°C° 0 mm 2 m/S 756 mmHg 43%
    07:00 +25°C° 0 mm 2 m/S 756 mmHg 37%
    08:00 +28°C° 0 mm 2 m/S 756 mmHg 31%
    09:00 +29°C° 0 mm 2 m/S 756 mmHg 28%
    10:00 +31°C° 0 mm 3 m/S 756 mmHg 24%
    11:00 +34°C° 0 mm 3 m/S 755 mmHg 21%
    12:00 +35°C° 0 mm 4 m/S 755 mmHg 20%
    13:00 +36°C° 0 mm 5 m/S 755 mmHg 19%
    14:00 +36°C° 0 mm 5 m/S 754 mmHg 18%
    15:00 +36°C° 0 mm 5 m/S 754 mmHg 19%
    16:00 +35°C° 0 mm 6 m/S 754 mmHg 20%
    17:00 +34°C° 0 mm 6 m/S 754 mmHg 20%
    18:00 +32°C° 0 mm 5 m/S 754 mmHg 24%
    19:00 +28°C° 0 mm 4 m/S 754 mmHg 28%
    20:00 +26°C° 0 mm 3 m/S 755 mmHg 32%
    21:00 +25°C° 0 mm 3 m/S 755 mmHg 36%
    22:00 +24°C° 0 mm 2 m/S 756 mmHg 39%
    23:00 +23°C° 0 mm 2 m/S 756 mmHg 42%

    6 Juni, Samstag

    Zeit Temperatur Niederschläge Wind Luftdruck Luftfeuchtigkeit
    00:00 +21°C° 0 mm 2 m/S 756 mmHg 43%
    01:00 +21°C° 0 mm 2 m/S 756 mmHg 44%
    02:00 +21°C° 0 mm 2 m/S 756 mmHg 45%
    03:00 +20°C° 0 mm 2 m/S 756 mmHg 46%
    04:00 +20°C° 0 mm 2 m/S 756 mmHg 47%
    05:00 +20°C° 0 mm 2 m/S 756 mmHg 48%
    06:00 +23°C° 0 mm 2 m/S 756 mmHg 45%
    07:00 +25°C° 0 mm 3 m/S 756 mmHg 42%
    08:00 +27°C° 0 mm 3 m/S 755 mmHg 40%
    09:00 +29°C° 0 mm 3 m/S 755 mmHg 36%
    10:00 +31°C° 0 mm 3 m/S 755 mmHg 32%
    11:00 +34°C° 0 mm 3 m/S 754 mmHg 29%
    12:00 +36°C° 0 mm 3 m/S 754 mmHg 27%
    13:00 +37°C° 0 mm 4 m/S 753 mmHg 25%
    14:00 +40°C° 0 mm 4 m/S 753 mmHg 24%
    15:00 +39°C° 0 mm 5 m/S 752 mmHg 24%
    16:00 +39°C° 0 mm 5 m/S 751 mmHg 25%
    17:00 +39°C° 0 mm 6 m/S 751 mmHg 26%
    18:00 +35°C° 0 mm 6 m/S 751 mmHg 33%
    19:00 +33°C° 0 mm 5 m/S 751 mmHg 40%
    20:00 +29°C° 0 mm 5 m/S 752 mmHg 46%
    21:00 +28°C° 0.2 mm 5 m/S 752 mmHg 50%
    22:00 +27°C° 0.2 mm 5 m/S 753 mmHg 54%
    23:00 +26°C° 0.2 mm 5 m/S 753 mmHg 57%

    7 Juni, Sonntag

    Zeit Temperatur Niederschläge Wind Luftdruck Luftfeuchtigkeit
    00:00 +25°C° 0.1 mm 4 m/S 753 mmHg 61%
    01:00 +23°C° 0.1 mm 4 m/S 753 mmHg 65%
    02:00 +22°C° 0.1 mm 3 m/S 753 mmHg 69%
    03:00 +22°C° 0 mm 3 m/S 753 mmHg 71%
    04:00 +21°C° 0 mm 3 m/S 753 mmHg 73%
    05:00 +21°C° 0 mm 3 m/S 752 mmHg 75%
    06:00 +24°C° 0 mm 2 m/S 753 mmHg 66%
    07:00 +27°C° 0 mm 2 m/S 753 mmHg 57%
    08:00 +29°C° 0 mm 2 m/S 753 mmHg 48%
    09:00 +33°C° 0 mm 3 m/S 753 mmHg 39%
    10:00 +37°C° 0 mm 4 m/S 752 mmHg 30%
    11:00 +41°C° 0 mm 4 m/S 752 mmHg 22%
    12:00 +42°C° 0 mm 5 m/S 751 mmHg 19%
    13:00 +45°C° 0 mm 6 m/S 751 mmHg 16%
    14:00 +47°C° 0 mm 7 m/S 750 mmHg 14%
    15:00 +46°C° 0 mm 7 m/S 750 mmHg 14%
    16:00 +45°C° 0 mm 7 m/S 749 mmHg 15%
    17:00 +44°C° 0 mm 7 m/S 749 mmHg 15%
    18:00 +42°C° 0 mm 6 m/S 749 mmHg 17%
    19:00 +40°C° 0 mm 5 m/S 750 mmHg 18%
    20:00 +37°C° 0 mm 5 m/S 750 mmHg 20%
    21:00 +35°C° 0 mm 4 m/S 751 mmHg 23%
    22:00 +34°C° 0 mm 3 m/S 751 mmHg 26%
    23:00 +31°C° 0 mm 3 m/S 752 mmHg 29%

    8 Juni, Montag

    Zeit Temperatur Niederschläge Wind Luftdruck Luftfeuchtigkeit
    00:00 +30°C° 0 mm 2 m/S 752 mmHg 31%
    01:00 +29°C° 0 mm 2 m/S 752 mmHg 34%
    02:00 +28°C° 0 mm 1 m/S 752 mmHg 36%
    03:00 +28°C° 0 mm 1 m/S 753 mmHg 38%
    04:00 +27°C° 0 mm 2 m/S 753 mmHg 39%
    05:00 +27°C° 0 mm 2 m/S 753 mmHg 41%
    06:00 +29°C° 0 mm 2 m/S 754 mmHg 37%
    07:00 +31°C° 0 mm 2 m/S 754 mmHg 32%
    08:00 +34°C° 0 mm 3 m/S 754 mmHg 28%
    09:00 +36°C° 0 mm 3 m/S 754 mmHg 26%
    10:00 +37°C° 0 mm 3 m/S 754 mmHg 24%
    11:00 +40°C° 0 mm 4 m/S 754 mmHg 22%
    12:00 +41°C° 0 mm 5 m/S 753 mmHg 20%
    13:00 +42°C° 0 mm 5 m/S 753 mmHg 18%
    14:00 +44°C° 0 mm 6 m/S 753 mmHg 16%
    15:00 +43°C° 0 mm 7 m/S 753 mmHg 16%
    16:00 +41°C° 0 mm 7 m/S 752 mmHg 17%
    17:00 +40°C° 0 mm 8 m/S 752 mmHg 18%
    18:00 +36°C° 0 mm 7 m/S 753 mmHg 23%
    19:00 +34°C° 0 mm 6 m/S 754 mmHg 29%
    20:00 +30°C° 0 mm 4 m/S 754 mmHg 34%
    21:00 +29°C° 0 mm 5 m/S 755 mmHg 37%
    22:00 +29°C° 0 mm 5 m/S 755 mmHg 39%
    23:00 +28°C° 0 mm 6 m/S 756 mmHg 42%
    Mehr zeigen